Погода в Юхнове

Россия / Калужская область     54°44′39″N   35°14′19″E
темп.,
°C
ветер,
м/с
пор.,
м/с
влажн.,
%
обл.,
%
осадки,
мм/ч
давл.,
гПа
погр.,
м
27 сентября, пн
пн2700:00+8ссз51291100 0.1 1017679
03:00+8с4109298 0.1 1019743
06:00+9с4109299 0.1 1020716
09:00+9с4987100 0.1 1022687
12:00+10с4777100 0.1 1023926
15:00+11ссв577772 0.8 1023940
18:00+9ссв4880100 0.1 1024672
21:00+8с399098 0.1 1025471
28 сентября, вт
вт2800:00+8ссв3989100 0.1 1025562
03:00+8ссв3891100 0.1 1026564
06:00+8ссв4991100 0.1 1026607
09:00+7всв4888100 0.4 1028757
12:00+7всв4678100 0.0 1030814
15:00+8всв4670100 0.1 10311145
18:00+7св2676100 0.0 1032507
21:00+6всв137356 0.0 103495
29 сентября, ср
ср2900:00+3св22895 0.0 103514
03:00+2ссв11934 0.0 103513
06:00+1ссв22955 0.0 103623
09:00+5св23745 0.0 1036246
12:00+10св235124 0.0 1036912
15:00+11св224743 0.0 10351135
18:00+8св1168100 0.0 103510
21:00+6ссв117799 0.0 103611
30 сентября, чт
чт3000:00+4св118750 0.0 103610
03:00+3всв119252 0.0 103610
06:00+3св11935 0.0 103610
09:00+7вюв127651 0.0 1037175
12:00+10вюв226695 0.0 1036546
15:00+10в226576 0.0 1036540
18:00+9в127597 0.0 103535
21:00+8вюв117488 0.0 103516
1 октября, пт
пт100:00+6ю228135 0.0 103618
03:00+4ю11895 0.0 103612
06:00+3ю11925 0.0 103610
09:00+7ю22745 0.0 1037200
12:00+12ю23565 0.0 1036823
15:00+13ююз33512 0.0 10351156
18:00+9ю22720 0.0 103414
21:00+6ююз22815 0.0 103428